MST,Max TemperatureF,Mean TemperatureF,Min TemperatureF,Max Dew PointF,MeanDew PointF,Min DewpointF,Max Humidity, Mean Humidity, Min Humidity, Max Sea Level PressureIn, Mean Sea Level PressureIn, Min Sea Level PressureIn, Max VisibilityMiles, Mean VisibilityMiles, Min VisibilityMiles, Max Wind SpeedMPH, Mean Wind SpeedMPH, Max Gust SpeedMPH,PrecipitationIn, CloudCover, Events, WindDirDegrees
2012-11-1,57,41,25,42,31,27,100,90,38,29.97,29.89,29.75,,,,21,6,21,0.00,,,197
2012-11-2,34,32,30,33,31,30,100,97,90,30.21,30.14,29.97,,,,8,4,,0.00,,,148
2012-11-3,52,40,29,40,34,30,100,86,49,30.16,30.03,29.92,,,,16,7,23,0.00,,,174
2012-11-4,59,42,25,40,34,26,98,67,36,30.25,30.14,29.96,,,,18,8,24,0.00,,,226
2012-11-5,64,48,31,41,29,17,65,39,14,30.17,29.98,29.82,,,,34,17,44,0.00,,,262
2012-11-6,45,36,28,33,29,20,99,74,45,30.24,30.06,29.78,,,,9,5,,0.00,,,68
2012-11-7,52,39,26,40,30,24,95,77,39,30.17,29.86,29.65,,,,16,9,18,0.00,,,354
2012-11-8,28,20,13,24,20,12,97,93,84,30.27,30.24,30.20,,,,18,9,23,0.12,,,15
2012-11-9,13,6,0,11,8,-2,94,90,82,30.29,30.26,30.23,,,,21,17,26,0.02,,,350
2012-11-10,9,-4,-18,4,-4,-23,91,82,69,30.32,30.28,30.25,,,,8,5,,0.01,,,4
2012-11-11,29,4,-21,17,-2,-24,90,73,51,30.29,30.20,30.09,,,,20,4,28,0.00,,,12
2012-11-12,39,20,0,25,22,17,66,58,40,30.09,30.05,30.03,,,,26,15,33,0.00,,,267
2012-11-13,44,34,24,28,23,19,81,60,40,30.11,30.07,30.01,,,,21,15,28,0.00,,,253
2012-11-14,45,30,16,25,22,14,96,65,38,30.21,30.08,29.99,,,,25,10,31,0.00,,,245
2012-11-15,48,32,15,27,19,15,79,53,30,30.21,30.08,29.86,,,,18,5,,0.00,,,208
2012-11-16,46,37,28,28,23,18,68,52,24,29.90,29.87,29.84,,,,20,11,28,0.00,,,220
2012-11-17,47,40,33,33,30,27,88,68,50,29.87,29.76,29.56,,,,16,8,17,0.00,,,164
2012-11-18,45,38,32,36,26,18,86,57,26,29.87,29.67,29.44,,,,24,14,33,0.00,,,202
2012-11-19,50,41,32,34,28,23,71,52,36,29.84,29.67,29.48,,,,37,18,50,0.00,,,193
2012-11-20,52,36,21,36,28,19,99,79,40,29.88,29.76,29.52,,,,36,18,48,0.00,,,187
2012-11-21,19,14,9,20,15,7,99,95,81,30.15,29.93,29.84,,,,6,4,,0.08,,,63
2012-11-22,16,7,-2,10,5,-4,92,85,68,30.62,30.49,30.18,,,,8,3,,0.00,,,123
2012-11-23,48,26,4,30,26,13,91,59,40,30.43,30.09,29.86,,,,26,12,34,0.00,,,225
2012-11-24,43,32,22,27,24,17,94,74,54,30.11,30.04,29.87,,,,18,9,28,0.00,,,333
2012-11-25,31,24,16,24,20,13,97,89,72,30.29,30.21,30.11,,,,7,5,,0.00,,,156
2012-11-26,34,22,11,18,14,8,85,66,46,30.31,30.24,30.15,,,,7,3,,0.00,,,59
2012-11-27,39,26,14,21,16,10,84,64,26,30.21,30.12,30.00,,,,22,5,,0.00,,,276
2012-11-28,41,28,16,20,17,15,98,74,41,30.15,30.05,29.98,,,,16,10,23,0.00,,,59
2012-11-29,19,16,14,19,17,13,98,96,92,29.97,29.90,29.78,,,,8,5,,0.00,,,127
2012-11-30,28,20,12,29,15,11,100,93,80,29.84,29.75,29.64,,,,15,4,24,0.00,,,35